Content
SEND FEEDBACK

Daily
Averages
Monthly
Summary
United States of America

SAN RAFAEL, CALIFORNIA


Home > North America > United States > California
Elevation: 30 feet     Latitude: 37 58N     Longitude: 122 32W

WEATHER
 
SELECT A DAY
Number of Records: 166,296;   Date Range: 9/27/07 - 8/29/14
 
SHARE

PRINT THIS DATA

[ ← Previous Day ]
WEATHER ALMANAC - JULY 8, 2013
[ Next Day → ]
[ °C ]   °F
We're sorry. There is no daily almanac available for San Rafael, California on July 8, 2013.
WEATHER BY HOUR - JULY 8, 2013
[ °C ]   °F
Local TimeTemperatureDewpointHumidityBarometerVisibilityWind DirectionWind SpeedGust SpeedPrecipitationEventsConditions
12:35 AM50.0 °F50.0 °F100 %29.88 in10.0 miNW (320°)3.5 mphClear
12:55 AM50.0 °F50.0 °F100 %29.88 in10.0 miCalmClear
1:15 AM51.8 °F51.8 °F100 %29.88 in10.0 miCalmClear
1:35 AM50.0 °F50.0 °F100 %29.88 in10.0 miCalmClear
1:55 AM50.0 °F50.0 °F100 %29.88 in10.0 miCalmClear
2:15 AM51.8 °F51.8 °F100 %29.89 in10.0 miCalmClear
2:35 AM50.0 °F50.0 °F100 %29.89 in10.0 miCalmClear
2:55 AM51.8 °F51.8 °F100 %29.89 in10.0 miCalmClear
3:15 AM50.0 °F50.0 °F100 %29.89 in10.0 miCalmScattered Clouds
3:55 AM51.8 °F51.8 °F100 %29.90 in10.0 miCalmScattered Clouds
4:15 AM51.8 °F51.8 °F100 %29.90 in10.0 miCalmOvercast
4:35 AM53.6 °F53.6 °F100 %29.90 in10.0 miCalmOvercast
4:55 AM53.6 °F53.6 °F100 %29.91 in10.0 miCalmOvercast
5:15 AM53.6 °F53.6 °F100 %29.91 in10.0 miCalmOvercast
5:35 AM53.6 °F53.6 °F100 %29.91 in10.0 miCalmOvercast
5:55 AM55.4 °F53.6 °F94 %29.92 in10.0 miWSW (240°)3.5 mphOvercast
6:15 AM55.4 °F53.6 °F94 %29.92 in10.0 miSSW (210°)4.6 mphOvercast
6:35 AM55.4 °F53.6 °F94 %29.92 in10.0 miCalmOvercast
6:55 AM55.4 °F53.6 °F94 %29.93 in10.0 miCalmOvercast
7:15 AM55.4 °F55.4 °F100 %29.94 in10.0 miCalm
7:35 AM55.4 °F55.4 °F100 %29.94 in10.0 miCalm
7:55 AM55.4 °F55.4 °F100 %29.94 in10.0 miCalm
8:15 AM55.4 °F55.4 °F100 %29.95 in10.0 miSouth (180°)3.5 mphOvercast
8:35 AM55.4 °F55.4 °F100 %29.95 in10.0 miCalmOvercast
8:55 AM55.4 °F55.4 °F100 %29.96 in10.0 miCalmOvercast
9:15 AM57.2 °F55.4 °F94 %29.96 in10.0 miCalmOvercast
9:35 AM57.2 °F55.4 °F94 %29.96 in10.0 miNNE (30°)3.5 mphOvercast
9:55 AM59.0 °F55.4 °F88 %29.96 in10.0 miNorth (360°)3.5 mphOvercast
10:15 AM60.8 °F55.4 °F82 %29.96 in10.0 miNNW (340°)4.6 mphOvercast
10:35 AM62.6 °F55.4 °F77 %29.96 in10.0 miNNW (330°)6.9 mphScattered Clouds
10:55 AM66.2 °F55.4 °F68 %29.96 in10.0 miNorth (350°)3.5 mphClear
11:15 AM66.2 °F55.4 °F68 %29.96 in10.0 miCalmClear
11:35 AM68.0 °F55.4 °F64 %29.96 in10.0 miSouth (190°)4.6 mphClear
11:55 AM69.8 °F55.4 °F60 %29.95 in10.0 miWNW (290°)4.6 mphClear
12:15 PM73.4 °F55.4 °F53 %29.95 in10.0 miWNW (290°)4.6 mphClear
12:35 PM73.4 °F55.4 °F53 %29.95 in10.0 miEast (80°)5.8 mphClear
12:55 PM75.2 °F55.4 °F50 %29.95 in10.0 miSE (140°)4.6 mphClear
1:15 PM77.0 °F55.4 °F47 %29.94 in10.0 miNE (50°)4.6 mphClear
1:35 PM77.0 °F55.4 °F47 %29.93 in10.0 miNE (50°)5.8 mphClear
1:55 PM80.6 °F57.2 °F45 %29.93 inESE (120°)4.6 mphClear
2:15 PM80.6 °F57.2 °F45 %29.93 inESE (120°)8.1 mphRainLight Rain
2:35 PM80.6 °F57.2 °F45 %29.92 inSE (130°)8.1 mphClear
2:55 PM80.6 °F55.4 °F42 %29.92 inSE (140°)6.9 mphClear
3:15 PM80.6 °F55.4 °F42 %29.92 inSE (130°)8.1 mphClear
3:35 PM80.6 °F55.4 °F42 %29.92 inEast (100°)8.1 mphClear
3:55 PM80.6 °F55.4 °F42 %29.92 inESE (110°)5.8 mphClear
4:15 PM80.6 °F55.4 °F42 %29.92 inESE (110°)4.6 mphClear
4:35 PM80.6 °F57.2 °F45 %29.92 inEast (80°)5.8 mphClear
4:55 PM80.6 °F57.2 °F45 %29.92 inEast (80°)3.5 mphClear
5:15 PM80.6 °F57.2 °F45 %29.91 inNNE (30°)9.2 mphClear
5:35 PM82.4 °F57.2 °F42 %29.91 inNNE (30°)10.4 mphClear
5:55 PM80.6 °F57.2 °F45 %29.90 inNNE (30°)13.8 mphClear
6:15 PM78.8 °F57.2 °F47 %29.90 inNorth (10°)11.5 mphClear
6:35 PM78.8 °F55.4 °F44 %29.91 inNorth (360°)11.5 mphClear
6:55 PM75.2 °F55.4 °F50 %29.91 in10.0 miNorth (10°)12.7 mphClear
7:15 PM73.4 °F55.4 °F53 %29.92 in10.0 miNorth (10°)13.8 mphClear
7:35 PM71.6 °F55.4 °F57 %29.92 in10.0 miNorth (10°)12.7 mphClear
7:55 PM68.0 °F55.4 °F64 %29.93 in10.0 miNorth (360°)11.5 mphClear
8:15 PM64.4 °F55.4 °F73 %29.93 in10.0 miNorth (10°)11.5 mphClear
8:35 PM62.6 °F55.4 °F77 %29.93 in10.0 miNorth (10°)12.7 mphClear
8:55 PM59.0 °F55.4 °F88 %29.94 in10.0 miNorth (10°)12.7 mphClear
9:15 PM59.0 °F55.4 °F88 %29.95 in10.0 miNorth (360°)12.7 mphClear
9:35 PM57.2 °F55.4 °F94 %29.96 in10.0 miNorth (360°)12.7 mphClear
9:55 PM57.2 °F55.4 °F94 %29.96 in10.0 miNorth (360°)11.5 mphClear
10:15 PM55.4 °F55.4 °F100 %29.97 in10.0 miNorth (360°)9.2 mphClear
10:35 PM55.4 °F55.4 °F100 %29.98 in10.0 miNorth (360°)10.4 mphClear
10:55 PM55.4 °F55.4 °F100 %29.98 in10.0 miNorth (10°)11.5 mphClear
11:15 PM53.6 °F53.6 °F100 %29.99 in10.0 miNorth (360°)9.2 mphClear
11:35 PM53.6 °F53.6 °F100 %29.99 in10.0 miNorth (360°)9.2 mphClear
11:55 PM53.6 °F53.6 °F100 %29.99 in10.0 miNorth (350°)8.1 mphClear
Hourly data recorded from KDVO, located miles away from San Rafael, California







STORIES FROM OUR PARTNERS